This is the latest recevied weather packets stored in our database for station/object W7PLC. If no packets are shown the sender has not sent any weather packets the latest 10 day(s).
| Time | Temp. | Humidity | Pressure | Rain* | Wind** | Luminosity | Snow |
|---|---|---|---|---|---|---|---|
| 1778002047 | 13.89° C | 86% | 1014.7 hPa | 0 mm | - | 42 W/m² | - |
| 1778001744 | 13.89° C | 87% | 1014.6 hPa | 0 mm | - | 45 W/m² | - |
| 1778001443 | 13.89° C | 87% | 1014.5 hPa | 0 mm | - | 45 W/m² | - |
| 1778001141 | 13.89° C | 86% | 1014.6 hPa | 0 mm | - | 42 W/m² | - |
| 1778000838 | 13.89° C | 87% | 1014.5 hPa | 0 mm | - | 40 W/m² | - |
| 1778000535 | 13.89° C | 87% | 1014.7 hPa | 0 mm | - | 39 W/m² | - |
| 1778000230 | 13.89° C | 87% | 1014.6 hPa | 0 mm | - | 36 W/m² | - |
| 1777999017 | 13.89° C | 87% | 1014.4 hPa | 0 mm | - | 30 W/m² | - |
| 1777998715 | 13.89° C | 87% | 1014.2 hPa | 0 mm | - | 30 W/m² | - |
| 1777998109 | 13.89° C | 87% | 1014.2 hPa | 0 mm | - | 31 W/m² | - |
| 1777997806 | 13.89° C | 88% | 1014.2 hPa | 0 mm | - | 31 W/m² | - |
| 1777997504 | 13.89° C | 88% | 1014.2 hPa | 0 mm | - | 31 W/m² | - |
| 1777995381 | 13.33° C | 89% | 1014.2 hPa | 0 mm | - | 24 W/m² | - |
| 1777994166 | 13.33° C | 89% | 1014 hPa | 0 mm | - | 20 W/m² | - |
| 1777992651 | 13.33° C | 88% | 1013.6 hPa | 0 mm | - | 16 W/m² | - |
| 1777991137 | 13.33° C | 88% | 1013.6 hPa | 0 mm | - | 10 W/m² | - |
| 1777990834 | 13.33° C | 89% | 1013.4 hPa | 0 mm | - | 10 W/m² | - |
| 1777989925 | 13.33° C | 88% | 1013.3 hPa | 0 mm | - | 7 W/m² | - |
| 1777989622 | 13.33° C | 89% | 1013.5 hPa | 0 mm | - | 6 W/m² | - |
| 1777989318 | 13.33° C | 89% | 1013.3 hPa | 0 mm | - | 5 W/m² | - |
| 1777989015 | 12.78° C | 89% | 1013.5 hPa | 0 mm | - | 3 W/m² | - |
| 1777988711 | 12.78° C | 89% | 1013 hPa | 0 mm | - | 3 W/m² | - |
| 1777988408 | 12.78° C | 89% | 1013.1 hPa | 0 mm | - | 3 W/m² | - |
| 1777988105 | 12.78° C | 90% | 1013.3 hPa | 0 mm | - | 2 W/m² | - |
| 1777987800 | 12.78° C | 93% | 1013 hPa | 0 mm | - | 1 W/m² | - |
* Rain latest hour (hover to see other rain measurements)
** Current wind speed in m/s (hover to see current wind gust speed)